Window Rock, AZ

5:20 PM MDT on September 25, 2017 (GMT -0600)
Window Rock

Weather History for KRQE - February, 2014

Change the Weather History Date:

Thursday, February 6, 2014

  Actual Average Record
Temperature  
Mean Temperature 30 °F -  
Max Temperature 41 °F 44 °F 68 °F (1963)
Min Temperature 18 °F 14 °F -16 °F (1982)
Degree Days  
Heating Degree Days 36    
Moisture  
Dew Point 21 °F    
Average Humidity 75    
Maximum Humidity 89    
Minimum Humidity 41    
Precipitation  
Precipitation 0.02 in - - ()
Sea Level Pressure  
Sea Level Pressure 29.95 in    
Wind  
Wind Speed 2 mph (SW)    
Max Wind Speed 15 mph    
Max Gust Speed 18 mph    
Visibility 8 miles    
Events Snow    
Averages and records for this station are not official NWS values.
T = Trace of Precipitation, MM = Missing Value Source: NWS Daily Summary

Daily Weather History Graph

Daily Weather History Graph

Search for Another Location

Airport or City:

Trip Planner

Search our weather history database for the weather conditions in past years. The results will help you decide how hot, cold, wet, or windy it might be!

Date:

Astronomy

Feb. 06, 2014 Rise Set
Actual Time 7:11 AM MST 5:49 PM MST
Civil Twilight 6:45 AM MST 6:15 PM MST
Nautical Twilight 6:15 AM MST 6:46 PM MST
Astronomical Twilight 5:45 AM MST 7:15 PM MST
Moon 11:23 AM MST (2/6) 12:30 AM MST (2/6)
Length of Visible Light 11h 30m
Length of Day
10h 37m
Waxing Crescent, 50% of the Moon is Illuminated
Feb 6
Waxing Crescent
Feb 6
First Quarter
Feb 14
Full
Feb 22
Last Quarter
Mar 1
New

Hourly Weather History & Observations

Time (MST) Temp. Windchill Dew Point Humidity Pressure Visibility Wind Dir Wind Speed Gust Speed Precip Events Conditions
12:38 AM 19.0 °F - 14.0 °F 81% 30.01 in 10.0 mi Calm Calm - N/A   Mostly Cloudy
12:53 AM 21.9 °F - 17.1 °F 82% 29.99 in 10.0 mi Calm Calm - N/A   Overcast
1:53 AM 24.1 °F - 19.0 °F 81% 29.97 in 10.0 mi Calm Calm - N/A   Scattered Clouds
2:23 AM 23.0 °F - 18.0 °F 81% 30.01 in 10.0 mi Calm Calm - N/A   Mostly Cloudy
2:41 AM 23.0 °F - 18.0 °F 81% 30.00 in 10.0 mi Calm Calm - N/A   Scattered Clouds
2:53 AM 19.9 °F - 15.1 °F 81% 29.98 in 10.0 mi Calm Calm - N/A   Scattered Clouds
3:17 AM 19.0 °F - 15.1 °F 85% 30.00 in 10.0 mi Calm Calm - N/A   Mostly Cloudy
3:53 AM 18.0 °F - 12.9 °F 81% 29.98 in 10.0 mi Calm Calm - N/A   Mostly Cloudy
4:53 AM 24.1 °F - 19.9 °F 84% 29.96 in 10.0 mi Calm Calm - N/A   Overcast
5:53 AM 24.1 °F - 19.0 °F 81% 29.97 in 10.0 mi Calm Calm - N/A   Overcast
6:53 AM 25.0 °F 18.1 °F 21.0 °F 85% 29.99 in 10.0 mi SSW 5.8 mph - N/A   Overcast
7:26 AM 23.0 °F 17.0 °F 19.0 °F 85% 30.01 in 10.0 mi SSW 4.6 mph - N/A   Scattered Clouds
7:53 AM 21.9 °F - 19.0 °F 89% 30.02 in 9.0 mi Calm Calm - N/A   Clear
8:53 AM 30.0 °F - 23.0 °F 75% 30.02 in - North - - N/A   Unknown
9:53 AM 33.1 °F 27.7 °F 23.0 °F 66% 30.01 in - South 5.8 mph - N/A   Unknown
10:53 AM 36.0 °F 32.1 °F 21.9 °F 57% 30.00 in 10.0 mi Variable 4.6 mph - N/A   Clear
11:53 AM 37.9 °F 32.7 °F 21.0 °F 51% 29.97 in 10.0 mi SW 6.9 mph - N/A   Partly Cloudy
12:53 PM 39.9 °F 33.9 °F 18.0 °F 41% 29.91 in 10.0 mi WSW 9.2 mph - N/A   Overcast
1:53 PM 41.0 °F 33.5 °F 19.0 °F 41% 29.88 in 10.0 mi SW 13.8 mph 18.4 mph N/A   Overcast
2:53 PM 37.9 °F 29.2 °F 19.0 °F 47% 29.92 in 10.0 mi WSW 15.0 mph - N/A   Overcast
3:53 PM 37.0 °F 31.6 °F 21.9 °F 54% 29.92 in 10.0 mi West 6.9 mph - 0.00 in   Overcast
4:53 PM 36.0 °F 31.1 °F 21.0 °F 55% 29.89 in 10.0 mi WSW 5.8 mph - N/A   Overcast
5:53 PM 35.1 °F 30.1 °F 21.0 °F 57% 29.89 in 10.0 mi SW 5.8 mph - N/A   Overcast
6:53 PM 32.0 °F - 24.1 °F 73% 29.91 in 4.0 mi North - - 0.00 in Snow Light Snow
7:04 PM 32.0 °F - 25.0 °F 75% 29.93 in 2.0 mi North - - 0.00 in Snow Light Snow
7:20 PM 30.9 °F - 26.1 °F 82% 29.94 in 1.2 mi North - - 0.00 in Snow Light Snow
7:51 PM 30.2 °F - 26.6 °F 86% 29.93 in 2.0 mi Calm Calm - 0.02 in Snow Light Snow
7:53 PM 30.9 °F - 26.1 °F 82% 29.93 in 2.5 mi Calm Calm - 0.02 in Snow Light Snow
8:01 PM 30.9 °F - 26.1 °F 82% 29.93 in 4.0 mi Calm Calm - 0.00 in Snow Light Snow
8:31 PM 30.9 °F - 26.1 °F 82% 29.93 in 3.0 mi Calm Calm - 0.00 in Snow Light Snow
8:53 PM 30.9 °F - 26.1 °F 82% 29.89 in 5.0 mi Calm Calm - 0.00 in Snow Light Snow
9:53 PM 30.0 °F 25.2 °F 25.0 °F 82% 29.88 in 8.0 mi South 4.6 mph - 0.00 in Snow Light Snow
10:28 PM 30.0 °F 25.2 °F 25.0 °F 82% 29.93 in 8.0 mi South 4.6 mph - 0.00 in Snow Light Snow
10:38 PM 28.9 °F 23.9 °F 25.0 °F 85% 29.93 in 9.0 mi SSW 4.6 mph - 0.00 in   Overcast
10:53 PM 28.0 °F 22.8 °F 25.0 °F 88% 29.88 in 10.0 mi SW 4.6 mph - 0.00 in   Overcast
11:30 PM 28.9 °F - 25.0 °F 85% 29.93 in 10.0 mi Calm Calm - N/A   Overcast
11:53 PM 30.0 °F - 25.0 °F 82% 29.86 in 9.0 mi Calm Calm - N/A   Overcast